Location: Springfield
(37.2150°N, 93.2980°W)
Time: 05:38:54
(UTC-06:00)

OTV 5 (USA 277) - Visible Passes

Search period start: 19 January 2018 00:00
Search period end: 29 January 2018 00:00
Orbit: 404 x 417 km, 43.0° (Epoch: 07 September)

Date Brightness Start Highest point End Pass type
(mag) Time Alt. Az. Time Alt. Az. Time Alt. Az.
20 Jan ? 19:20:13 10° SSW 19:21:45 22° SSW 19:21:45 22° SSW visible
21 Jan ? 18:29:43 10° SSW 18:32:18 21° SE 18:33:23 18° ESE visible
21 Jan ? 20:06:02 10° WSW 20:06:10 11° WSW 20:06:10 11° WSW visible
22 Jan ? 19:14:57 10° WSW 19:17:44 58° SW 19:17:44 58° SW visible
23 Jan ? 18:24:00 10° SW 18:27:17 52° SSE 18:29:15 21° E visible
23 Jan ? 20:01:29 10° W 20:02:01 13° W 20:02:01 13° W visible
24 Jan ? 19:10:15 10° W 19:13:29 49° NNW 19:13:29 49° NNW visible
25 Jan ? 18:19:03 10° WSW 18:22:25 68° NNW 18:24:54 17° ENE visible
25 Jan ? 19:57:04 10° WNW 19:57:40 14° WNW 19:57:40 14° WNW visible
26 Jan ? 19:05:47 10° WNW 19:08:53 33° N 19:09:03 32° N visible
27 Jan ? 18:14:31 10° W 18:17:42 38° NNW 18:20:26 13° NE visible
27 Jan ? 19:52:29 10° WNW 19:53:11 14° NW 19:53:11 14° NW visible
28 Jan ? 19:01:19 10° WNW 19:04:18 29° N 19:04:34 28° N visible
